Weather History for KTIF - March, 2014

Change the Weather History Date:

Saturday, March 1, 2014

  Actual Average (KLBF) Record (KLBF)
Temperature  
Mean Temperature 4 °F 33 °F  
Max Temperature 12 °F 47 °F 77 °F (2008)
Min Temperature -4 °F 19 °F -11 °F (1980)
Degree Days  
Heating Degree Days 61 32  
Month to date heating degree days 32  
Since 1 July heating degree days 5060  
Cooling Degree Days 0 0  
Month to date cooling degree days 0  
Year to date cooling degree days 0  
Moisture  
Dew Point -5 °F    
Average Humidity 70    
Maximum Humidity 79    
Minimum Humidity 59    
Precipitation  
Precipitation 0.00 in 0.02 in 0.44 in (2002)
Month to date precipitation 0.02  
Year to date precipitation 0.86  
Snow  
Snow 0.00 in 0.20 in 7.40 in (2002)
Month to date snowfall 0.2  
Since 1 July snowfall 21.1  
Snow Depth -    
Sea Level Pressure  
Sea Level Pressure 30.25 in    
Wind  
Wind Speed 11 mph (NNE)    
Max Wind Speed 15 mph    
Max Gust Speed 18 mph    
Visibility 7 miles    
Events Snow    
T = Trace of Precipitation, MM = Missing Value Source: NWS Daily Summary

Daily Weather History Graph

Daily Weather History Graph

Search for Another Location

Airport or City:

Trip Planner

Search our weather history database for the weather conditions in past years. The results will help you decide how hot, cold, wet, or windy it might be!

Date:

Astronomy

Mar. 01, 2014 Rise Set
Actual Time 7:17 AM CST 6:32 PM CST
Civil Twilight 6:49 AM CST 7:00 PM CST
Nautical Twilight 6:16 AM CST 7:32 PM CST
Astronomical Twilight 5:44 AM CST 8:05 PM CST
Moon 7:11 AM CST (3/1) 7:23 PM CST (3/1)
Length of Visible Light 12h 11m
Length of Day
11h 15m
New Moon, 0% of the Moon is Illuminated
Mar 1
New Moon
Mar 8
First Quarter
Mar 16
Full
Mar 23
Last Quarter
Mar 30
New

Hourly Weather History & Observations

Time (CST) Temp. Windchill Dew Point Humidity Pressure Visibility Wind Dir Wind Speed Gust Speed Precip Events Conditions
12:15 AM 12.2 °F -3.1 °F 5.0 °F 73% 30.08 in 5.0 mi NE 13.8 mph - N/A Snow Light Snow
12:35 AM 11.7 °F -1.7 °F 5.0 °F 75% 30.11 in 3.0 mi NNE 10.4 mph - N/A Snow Light Snow
12:55 AM 11.5 °F -2.7 °F 5.4 °F 76% 30.12 in 4.0 mi NNE 11.5 mph 17.3 mph N/A Snow Light Snow
1:15 AM 11.7 °F -3.2 °F 5.7 °F 77% 30.12 in 4.0 mi NNE 12.7 mph - N/A Snow Light Snow
1:35 AM 11.1 °F -3.2 °F 4.6 °F 75% 30.14 in 10.0 mi NNE 11.5 mph - N/A   Overcast
1:55 AM 10.6 °F -5.2 °F 4.6 °F 77% 30.11 in 2.5 mi NNE 13.8 mph - N/A Snow Light Snow
2:15 AM 10.2 °F -4.3 °F 4.1 °F 76% 30.10 in 4.0 mi NNE 11.5 mph - N/A Snow Light Snow
2:35 AM 10.2 °F -1.7 °F 4.6 °F 78% 30.12 in 2.5 mi NNE 8.1 mph - N/A Snow Light Snow
2:55 AM 10.2 °F -2.7 °F 4.6 °F 78% 30.12 in 4.0 mi NE 9.2 mph - N/A Snow Light Snow
3:15 AM 10.2 °F -3.5 °F 4.8 °F 79% 30.10 in 4.0 mi NNE 10.4 mph - N/A Snow Light Snow
3:35 AM 9.3 °F -4.6 °F 3.2 °F 76% 30.09 in 4.0 mi NE 10.4 mph - N/A Snow Light Snow
3:55 AM 8.6 °F -6.3 °F 2.7 °F 77% 30.11 in 7.0 mi NE 11.5 mph - N/A Snow Light Snow
4:15 AM 8.2 °F -6.8 °F 2.3 °F 77% 30.12 in 7.0 mi NNE 11.5 mph - N/A Snow Light Snow
4:35 AM 7.9 °F -6.4 °F 1.6 °F 75% 30.14 in 10.0 mi NE 10.4 mph - N/A   Overcast
4:55 AM 8.1 °F -6.2 °F 2.1 °F 77% 30.13 in 10.0 mi NNE 10.4 mph - N/A   Overcast
5:15 AM 7.5 °F -6.9 °F 1.2 °F 75% 30.15 in 7.0 mi NNE 10.4 mph - N/A Snow Light Snow
5:35 AM 7.5 °F -5.0 °F 1.8 °F 77% 30.18 in 4.0 mi NE 8.1 mph - N/A Snow Light Snow
5:55 AM 6.4 °F -11.1 °F 0.1 °F 75% 30.17 in 3.0 mi NE 15.0 mph - N/A Snow Light Snow
6:15 AM 5.5 °F -10.9 °F -0.2 °F 77% 30.17 in 1.5 mi NE 12.7 mph 17.3 mph N/A Snow Light Snow
6:35 AM 5.2 °F -7.9 °F -0.4 °F 78% 30.19 in 1.8 mi NNE 8.1 mph - N/A Snow Light Snow
6:55 AM 5.4 °F -5.2 °F -0.4 °F 77% 30.23 in 1.8 mi NNE 5.8 mph - N/A Snow Light Snow
7:15 AM 5.4 °F -7.6 °F -0.4 °F 77% 30.21 in 7.0 mi NNE 8.1 mph - N/A Snow Light Snow
7:35 AM 4.8 °F -11.1 °F -1.3 °F 76% 30.21 in 7.0 mi ENE 11.5 mph - N/A Snow Light Snow
7:55 AM 4.3 °F -10.9 °F -2.2 °F 75% 30.21 in 10.0 mi NE 10.4 mph - N/A Snow Light Snow
8:15 AM 4.1 °F -13.4 °F -2.6 °F 74% 30.21 in 10.0 mi NE 13.8 mph - N/A   Overcast
8:35 AM 4.1 °F -12.7 °F -3.3 °F 71% 30.22 in 10.0 mi NE 12.7 mph 16.1 mph N/A   Overcast
8:55 AM 4.1 °F -12.7 °F -3.1 °F 72% 30.25 in 10.0 mi NE 12.7 mph 16.1 mph N/A Snow Light Snow
9:15 AM 4.1 °F -12.7 °F -3.5 °F 71% 30.26 in 10.0 mi NE 12.7 mph - N/A Snow Light Snow
9:35 AM 4.1 °F -13.4 °F -3.8 °F 70% 30.26 in 10.0 mi NE 13.8 mph - N/A Snow Light Snow
9:55 AM 4.1 °F -10.2 °F -3.6 °F 70% 30.28 in 5.0 mi NNE 9.2 mph 15.0 mph N/A Snow Light Snow
10:15 AM 3.4 °F -13.6 °F -3.8 °F 72% 30.27 in 1.2 mi NNE 12.7 mph - N/A Snow Light Snow
10:35 AM 3.2 °F -13.1 °F -3.5 °F 74% 30.28 in 1.0 mi NNE 11.5 mph - N/A Snow Light Snow
10:55 AM 3.2 °F -13.1 °F -3.5 °F 74% 30.28 in 1.0 mi NNE 11.5 mph - N/A Snow Light Snow
11:15 AM 3.0 °F -14.8 °F -3.8 °F 73% 30.29 in 1.5 mi NE 13.8 mph - N/A Snow Light Snow
11:35 AM 2.3 °F -13.4 °F -5.3 °F 71% 30.29 in 2.0 mi NE 10.4 mph - N/A Snow Light Snow
11:55 AM 1.9 °F -15.5 °F -4.5 °F 74% 30.27 in 0.2 mi ENE 12.7 mph 17.3 mph N/A Snow Snow
12:15 PM 1.2 °F -17.1 °F -4.9 °F 75% 30.27 in 0.2 mi NE 13.8 mph 17.3 mph N/A Snow Snow
12:35 PM 1.8 °F -14.9 °F -4.7 °F 74% 30.28 in 0.2 mi NE 11.5 mph - N/A Snow Snow
12:55 PM 2.3 °F -15.0 °F -4.7 °F 72% 30.28 in 0.5 mi NE 12.7 mph - N/A Snow Light Snow
1:15 PM 3.7 °F -11.6 °F -6.2 °F 64% 30.28 in 5.0 mi ENE 10.4 mph - N/A Snow Light Snow
1:35 PM 3.2 °F -14.6 °F -8.0 °F 60% 30.26 in 10.0 mi NNE 13.8 mph 17.3 mph N/A   Overcast
1:55 PM 3.2 °F -13.9 °F -7.1 °F 62% 30.27 in 10.0 mi NE 12.7 mph 16.1 mph N/A   Overcast
2:15 PM 2.7 °F -14.5 °F -6.9 °F 64% 30.24 in 7.0 mi NE 12.7 mph - N/A   Overcast
2:35 PM 2.5 °F -16.2 °F -9.0 °F 59% 30.26 in 10.0 mi NE 15.0 mph - N/A   Overcast
2:55 PM 2.3 °F -15.0 °F -8.0 °F 62% 30.29 in 10.0 mi NNE 12.7 mph 16.1 mph N/A   Overcast
3:15 PM 2.3 °F -12.4 °F -8.7 °F 60% 30.29 in 10.0 mi NNE 9.2 mph - N/A   Overcast
3:35 PM 1.9 °F -12.9 °F -7.8 °F 64% 30.30 in 10.0 mi NNE 9.2 mph - N/A   Overcast
3:55 PM 1.4 °F -15.3 °F -8.1 °F 64% 30.29 in 7.0 mi NNE 11.5 mph - N/A   Overcast
4:15 PM 1.4 °F -16.1 °F -9.6 °F 60% 30.28 in 10.0 mi NNE 12.7 mph 17.3 mph N/A   Overcast
4:35 PM 1.2 °F -16.4 °F -8.7 °F 63% 30.28 in 10.0 mi NE 12.7 mph 18.4 mph N/A   Overcast
4:55 PM 0.9 °F -16.8 °F -8.5 °F 65% 30.27 in 10.0 mi NE 12.7 mph - N/A   Overcast
5:15 PM 0.5 °F -17.3 °F -9.2 °F 64% 30.28 in 10.0 mi NNE 12.7 mph - N/A   Overcast
5:35 PM 0.3 °F -16.7 °F -10.3 °F 61% 30.29 in 10.0 mi NNE 11.5 mph - N/A   Overcast
5:55 PM -0.4 °F -16.7 °F -10.3 °F 63% 30.30 in 10.0 mi NNE 10.4 mph - N/A   Overcast
6:15 PM -0.6 °F -16.9 °F -10.3 °F 64% 30.29 in 10.0 mi NNE 10.4 mph - N/A   Overcast
6:35 PM -1.3 °F -16.8 °F -9.9 °F 67% 30.30 in 10.0 mi NNE 9.2 mph - N/A   Overcast
6:55 PM -1.5 °F -18.1 °F -10.3 °F 66% 30.30 in 10.0 mi NNE 10.4 mph - N/A   Overcast
7:15 PM -2.2 °F -18.9 °F -10.5 °F 68% 30.33 in 10.0 mi NNE 10.4 mph - N/A   Overcast
7:35 PM -2.4 °F -19.2 °F -11.2 °F 66% 30.34 in 10.0 mi NNE 10.4 mph - N/A   Overcast
7:55 PM -2.7 °F -20.5 °F -11.7 °F 65% 30.34 in 10.0 mi NNE 11.5 mph - N/A   Overcast
8:15 PM -3.1 °F -19.1 °F -11.9 °F 66% 30.36 in 10.0 mi NNE 9.2 mph - N/A   Overcast
8:35 PM -3.3 °F -18.2 °F -11.6 °F 68% 30.37 in 10.0 mi NNE 8.1 mph - N/A   Overcast
8:55 PM -3.3 °F -16.9 °F -11.2 °F 69% 30.37 in 10.0 mi North 6.9 mph - N/A   Overcast
9:15 PM -3.6 °F -17.3 °F -11.6 °F 69% 30.37 in 10.0 mi North 6.9 mph - N/A   Overcast
9:35 PM -3.8 °F -18.8 °F -12.5 °F 66% 30.37 in 10.0 mi NNE 8.1 mph - N/A   Overcast
9:55 PM -4.0 °F -17.8 °F -11.7 °F 69% 30.38 in 10.0 mi NNE 6.9 mph - N/A   Overcast
10:15 PM -4.2 °F -19.3 °F -12.5 °F 68% 30.37 in 10.0 mi NNE 8.1 mph - N/A   Overcast
10:35 PM -4.2 °F -14.8 °F -13.0 °F 66% 30.37 in 10.0 mi NNE 4.6 mph - N/A   Overcast
10:55 PM -4.2 °F -16.5 °F -12.6 °F 67% 30.37 in 10.0 mi North 5.8 mph - N/A   Overcast
11:15 PM -4.4 °F -16.7 °F -13.0 °F 66% 30.36 in 10.0 mi NNE 5.8 mph - N/A   Overcast
11:35 PM -4.5 °F -19.7 °F -13.4 °F 66% 30.36 in 10.0 mi NNE 8.1 mph - N/A   Overcast
11:55 PM -4.4 °F -15.0 °F -13.0 °F 66% 30.37 in 10.0 mi NNE 4.6 mph - N/A   Overcast